Regional Weather Roundup
Issued by NWS

Home | Current Version | Previous Version | Text Only | Print | Product List | Glossary Off
Versions: 1 2 3 4 5 6 7 8 9 10 11 12 13 14 15 16 17 18 19 20 21 22 23 24 25 26 27 28 29 30 31 32 33 34 35 36 37 38 39 40 41 42 43 44 45 46 47 48 49 50

000
ASUS43 KDMX 292007
RWRIA

WEATHER ROUNDUP FOR IOWA
NATIONAL WEATHER SERVICE DES MOINES IA
300 PM CDT MON SEP 29 2014

NOTE: "FAIR" INDICATES FEW OR NO CLOUDS BELOW 12,000 FEET WITH NO
SIGNIFICANT WEATHER AND/OR OBSTRUCTIONS TO VISIBILITY.

* - THESE STATIONS ARE NOT NWS STATIONS...THUS NOT UNDER NWS
QUALITY CONTROL.  THEY ALSO DO NOT REPORT WEATHER SUCH
AS PRECIPITATION OR FOG.

IAZ001>003-012>014-020>022-031>034-043>046-292100-
   NORTHWEST IOWA

CITY           SKY/WX    TMP DP  RH WIND       PRES   REMARKS
CARROLL *      CLOUDY    73  63  68 N6        30.02F
CHEROKEE *     SUNNY     73  64  73 NE7       30.03F
DENISON *      MOSUNNY   75  66  73 N8        29.99F
LE MARS *      SUNNY     75  63  64 VRB3      30.02F
ORANGE CITY *  SUNNY     75  61  60 E7        30.03F
SHELDON *      MOSUNNY   70  59  68 NE14      30.04F
SIOUX CITY     MOSUNNY   80  64  58 NE8       30.00F HX  82
SPENCER        CLOUDY    63  57  81 NE12      30.06F
STORM LAKE *   SUNNY     70  61  73 NE8       30.05F
$$

IAZ055>058-069>071-079>083-090>094-292100-
   SOUTHWEST IOWA

CITY           SKY/WX    TMP DP  RH WIND       PRES   REMARKS
ATLANTIC *     PTSUNNY   81  57  44 CALM      29.99F HX  81
AUDUBON *      SUNNY     82  54  36 W6        30.02F HX  81
CLARINDA *     MOSUNNY   82  55  39 CALM      30.01F HX  82
COUNCIL BLFS * HAZE      82  59  44 VRB6      29.99F VSB 3/4 HX  82
CRESTON *      MOSUNNY   81  59  47 CALM      30.02F HX  81
HARLAN  *      SUNNY     82  57  42 W9        30.03F HX  82
LAMONI         SUNNY     81  56  42 VRB3      30.02F HX  81
RED OAK *      MOSUNNY   82  59  44 VRB3      30.00F HX  82
SHENANDOAH *   SUNNY     82  59  44 NE5       30.00F HX  82
$$

IAZ047>049-059>061-072>074-084-292100-
   CENTRAL IOWA

CITY           SKY/WX    TMP DP  RH WIND       PRES   REMARKS
AMES           MOSUNNY   81  61  50 W14       29.99F HX  82
ANKENY *       MOSUNNY   79  63  57 SW7       29.99F HX  80
CHARITON *     SUNNY     81  57  44 SW7       30.01F HX  81
DES MOINES     CLOUDY    80  60  50 SW7       30.00F HX  81
GRINNELL*      SUNNY     82  57  42 W10       30.00F HX  82
KNOXVILLE *    SUNNY     81  59  47 W9        29.99F HX  81
MARSHALLTOWN   PTSUNNY   80  60  50 NW12      29.99F HX  81
PELLA *        SUNNY     84  57  39 W7        30.01F HX  83
PERRY *          N/A     81  59  47 NW6       30.00F HX  81
$$

IAZ004>006-015-016-023>025-035-036-292100-
   NORTH CENTRAL IOWA

CITY           SKY/WX    TMP DP  RH WIND       PRES   REMARKS
ALGONA *       PTSUNNY   63  61  94 NE12G17   30.06F
CLARION *      MOSUNNY   68  61  77 N10       30.04S
ESTHERVILLE    CLOUDY    61  57  87 NE6       30.07F
FORT DODGE *   PTSUNNY   73  63  68 N8        30.04F
MASON CITY     CLOUDY    62  59  90 N8        30.07S
FOREST CITY *  CLOUDY    61  61 100 N8        30.06S FOG
IOWA FALLS *   PTSUNNY   79  61  53 NW10      30.01F HX  80
$$

IAZ007>011-017>019-026>030-037>042-050>054-066-292100-
   NORTHEAST IOWA

CITY           SKY/WX    TMP DP  RH WIND       PRES   REMARKS
CEDAR RAPIDS   MOSUNNY   82  61  47 W12       29.97F HX  83
CHARLES CITY * MOSUNNY   70  61  73 N14       30.03S
CLINTON *      PTSUNNY   82  57  42 W7        29.99F HX  82
DECORAH *      CLOUDY    64  59  82 N10G17    30.02R
MONTICELLO *   SUNNY     82  55  39 SW9       29.97F HX  82
OELWEIN *      PTSUNNY   82  59  44 W14       29.98F HX  82
WATERLOO       PTSUNNY   80  59  48 NW9       29.96F HX  81
$$

IAZ064-065-067-068-078-292100-
   EAST CENTRAL IOWA

CITY           SKY/WX    TMP DP  RH WIND       PRES   REMARKS
IOWA CITY      MOSUNNY   83  58  42 VRB6      29.99F HX  83
MT. PLEASANT * SUNNY     84  50  30 W5        29.99F HX  82
MUSCATINE *    SUNNY     84  54  34 NW10      29.98F HX  83
$$

IAZ062-063-075>077-085>089-095>099-292100-
   SOUTHEAST IOWA

CITY           SKY/WX    TMP DP  RH WIND       PRES   REMARKS
BURLINGTON     SUNNY     83  59  44 SW6       29.99F HX  83
FAIRFIELD *    SUNNY     84  54  34 SW8       29.99F HX  83
FORT MADISON * SUNNY     86  52  30 SW9       30.00F HX  84
KEOKUK *       SUNNY     82  61  47 W7        29.99F HX  83
OSKALOOSA *      N/A     84  57  39 W9        30.00F HX  83
CENTERVILLE *  SUNNY     82  55  39 W3        30.03F HX  82
OTTUMWA        SUNNY     82  57  42 NW6       30.00F HX  82
WASHINGTON *   SUNNY     84  57  39 W6        29.99F HAZE    HX  83
$$

ABBREVIATIONS USED IN REMARKS
   TC - TEMPERATURES IN CELSIUS
  WCI - WIND CHILL INDEX
   HX - HEAT INDEX
  VSB - VISIBILITY
$$



USA.gov is the U.S. government's official web portal to all federal, state and local government web resources and services.